Location: Les Moreaux
(47.2278°N, 1.4966°E)
Time: 23:00:53
(UTC+00:00)

CZ-4C R/B - Pass Details

Date: 12 May 2026
Orbit: 409 x 496 km, 98.0° (Epoch: 7 June)

Event Time Altitude Azimuth Distance (km) Brightness Sun altitude
Rises 01:54:06 0° 352° (N) 2,429 7.4 -19.0°
Reaches altitude 10° 01:57:23 10° 316° (NW) 1,577 5.8 -18.7°
Maximum altitude 01:58:24 11° 298° (WNW) 1,515 5.5 -18.6°
Enters shadow 01:58:50 11° 291° (WNW) 1,529 5.5 -18.6°
